This demonstration page uses our WeatherBlox Daily Observations layout. Learn more.

40.92945, -100.16068

Hourly Observations for April 7, 2017

Temp ( °F °C ) Dew Point ( °F °C ) Humidity (%) Winds ( mph kmh ) Pressure ( in mb ) Visibility ( mi km ) Precip ( " mm )
12:15 am 00:15 Clear 45 7.1 30 -1.2 56 56 SE 9 15 30.21 1023 10 16.0934 0 0
12:35 am 00:35 Clear 44 6.6 30 -1.1 58 58 SE 7 11 30.21 1023 10 16.0934 0 0
12:55 am 00:55 Clear 43 6 30 -1.1 61 61 SE 8 13 30.21 1023 10 16.0934 0 0
1:15 am 01:15 Clear 43 6.1 30 -1.3 59 59 SE 10 17 30.21 1023 10 16.0934 0 0
1:35 am 01:35 Clear 41 5.1 30 -1.3 64 64 SSE 7 11 30.24 1024 10 16.0934 0 0
1:55 am 01:55 Clear 40 4.7 30 -1.3 65 65 SE 7 11 30.24 1024 10 16.0934 0 0
2:15 am 02:15 Clear 42 5.5 30 -1.3 62 62 SE 7 11 30.21 1023 10 16.0934 0 0
2:35 am 02:35 Clear 43 6 30 -1.1 61 61 SSE 9 15 30.18 1022 10 16.0934 0 0
2:55 am 02:55 Clear 42 5.5 30 -1 63 63 SSE 9 15 30.18 1022 10 16.0934 0 0
3:15 am 03:15 Clear 40 4.7 30 -1 67 67 SSE 9 15 30.21 1023 10 16.0934 0 0
3:35 am 03:35 Clear 41 4.9 30 -1 66 66 SE 8 13 30.18 1022 10 16.0934 0 0
3:55 am 03:55 Clear 41 5 30 -1 66 66 SSE 8 13 30.18 1022 10 16.0934 0 0
4:15 am 04:15 Clear 40 4.5 31 -0.7 69 69 SSE 10 17 30.18 1022 10 16.0934 0 0
4:35 am 04:35 Clear 39 4.1 31 -0.6 72 72 SSE 10 17 30.18 1022 10 16.0934 0 0
4:55 am 04:55 Clear 39 4.1 31 -0.5 72 72 SSE 10 17 30.18 1022 10 16.0934 0 0
5:15 am 05:15 Clear 39 3.9 31 -0.5 73 73 SSE 9 15 30.18 1022 10 16.0934 0 0
5:35 am 05:35 Clear 39 4 31 -0.5 73 73 SE 7 11 30.18 1022 10 16.0934 0 0
5:55 am 05:55 Clear 38 3.6 31 -0.3 76 76 SE 9 15 30.18 1022 10 16.0934 0 0
6:15 am 06:15 Clear 39 3.8 32 -0.1 76 76 SE 8 13 30.15 1021 10 16.0934 0 0
6:35 am 06:35 Clear 39 3.8 32 0 77 77 SSE 8 13 30.15 1021 10 16.0934 0 0
6:55 am 06:55 Clear 38 3.5 32 0 78 78 SE 7 11 30.15 1021 10 16.0934 0 0
7:15 am 07:15 Sunny 38 3.2 32 0 80 80 ESE 7 11 30.15 1021 10 16.0934 0 0
7:35 am 07:35 Sunny 37 3 32 0 81 81 ESE 8 13 30.15 1021 10 16.0934 0 0
7:55 am 07:55 Sunny 38 3.5 33 0.7 82 82 SSE 8 13 30.15 1021 10 16.0934 0 0
8:15 am 08:15 Sunny 42 5.5 34 1.3 75 75 S 12 19 30.12 1020 10 16.0934 0 0
8:35 am 08:35 Sunny 44 6.4 35 1.5 71 71 S 12 19 30.12 1020 10 16.0934 0 0
8:55 am 08:55 Sunny 46 7.7 35 1.7 66 66 S 14 22 30.06 1018 10 16.0934 0 0
9:15 am 09:15 Sunny 48 9 35 1.7 61 61 S 17 28 30.06 1018 10 16.0934 0 0
9:35 am 09:35 Sunny 50 9.8 35 1.6 57 57 S 18 30 30.06 1018 10 16.0934 0 0
9:55 am 09:55 Sunny 51 10.6 35 1.7 54 54 S 26 43 30.03 1017 10 16.0934 0 0
10:15 am 10:15 Sunny 52 11.2 34 1.3 51 51 S 30 48 30.03 1017 10 16.0934 0 0
10:35 am 10:35 Sunny 53 11.8 35 1.7 50 50 S 28 44 30.03 1017 10 16.0934 0 0
10:55 am 10:55 Sunny 55 12.9 36 2 48 48 S 26 43 30.03 1017 10 16.0934 0 0
11:15 am 11:15 Sunny 57 14.1 36 2 44 44 S 23 37 29.97 1015 10 16.0934 0 0
11:35 am 11:35 Sunny 59 14.9 35 1.9 42 42 S 22 35 29.97 1015 10 16.0934 0 0
11:55 am 11:55 Sunny 60 15.5 35 1.8 40 40 S 23 37 29.97 1015 10 16.0934 0 0
12:15 pm 12:15 Sunny 60 15.7 36 2.1 40 40 S 25 41 29.94 1014 10 16.0934 0 0
12:35 pm 12:35 Sunny 61 16 36 2 39 39 S 21 33 29.94 1014 10 16.0934 0 0
12:55 pm 12:55 Sunny 62 16.5 35 1.6 37 37 S 21 33 29.88 1012 10 16.0934 0 0
1:15 pm 13:15 Sunny 61 16.2 35 1.8 38 38 S 22 35 29.88 1012 10 16.0934 0 0
1:35 pm 13:35 Sunny 62 16.5 35 1.9 38 38 S 22 35 29.85 1011 10 16.0934 0 0
1:55 pm 13:55 Sunny 62 16.9 36 2.4 38 38 S 22 35 29.85 1011 10 16.0934 0 0
2:15 pm 14:15 Sunny 66 18.7 37 2.8 35 35 S 25 41 29.85 1011 10 16.0934 0 0
2:35 pm 14:35 Sunny 67 19.3 37 3 34 34 S 23 37 29.83 1010 10 16.0934 0 0
2:55 pm 14:55 Sunny 67 19.5 37 2.7 33 33 S 20 31 29.8 1009 10 16.0934 0 0
3:15 pm 15:15 Sunny 68 20.1 37 2.8 32 32 S 26 43 29.77 1008 10 16.0934 0 0
3:35 pm 15:35 Sunny 69 20.8 38 3.4 32 32 S 26 43 29.77 1008 10 16.0934 0 0
3:55 pm 15:55 Sunny 70 21 38 3.1 31 31 S 25 41 29.74 1007 10 16.0934 0 0
4:15 pm 16:15 Sunny 71 21.4 39 3.7 31 31 S 22 35 29.74 1007 10 16.0934 0 0
4:35 pm 16:35 Sunny 71 21.5 38 3.4 31 31 S 23 37 29.68 1005 10 16.0934 0 0
4:55 pm 16:55 Sunny 71 21.5 39 3.9 32 32 S 22 35 29.68 1005 10 16.0934 0 0
5:15 pm 17:15 Sunny 71 21.5 39 3.8 31 31 S 21 33 29.68 1005 10 16.0934 0 0
5:35 pm 17:35 Sunny 71 21.5 40 4.3 33 33 S 24 39 29.68 1005 10 16.0934 0 0
5:55 pm 17:55 Sunny 70 21.2 40 4.4 33 33 S 18 30 29.68 1005 10 16.0934 0 0
6:15 pm 18:15 Sunny 70 21.1 39 4.1 33 33 S 22 35 29.65 1004 10 16.0934 0 0
6:35 pm 18:35 Sunny 69 20.5 40 4.6 35 35 S 18 30 29.68 1005 10 16.0934 0 0
6:55 pm 18:55 Sunny 68 20.2 40 4.5 36 36 S 16 26 29.68 1005 10 16.0934 0 0
7:15 pm 19:15 Sunny 68 20 41 5.1 38 38 S 16 26 29.68 1005 10 16.0934 0 0
7:35 pm 19:35 Sunny 67 19.5 41 5 39 39 S 18 30 29.68 1005 10 16.0934 0 0
7:55 pm 19:55 Sunny 65 18.6 41 5.2 42 42 SSE 15 24 29.68 1005 10 16.0934 0 0
8:15 pm 20:15 Clear 64 18 42 5.3 43 43 SSE 15 24 29.68 1005 10 16.0934 0 0
8:35 pm 20:35 Clear 63 17.2 42 5.5 46 46 SSE 16 26 29.71 1006 10 16.0934 0 0
8:55 pm 20:55 Clear 61 16.2 42 5.6 50 50 SSE 16 26 29.68 1005 10 16.0934 0 0
9:15 pm 21:15 Clear 60 15.8 42 5.8 52 52 SSE 17 28 29.71 1006 10 16.0934 0 0
9:35 pm 21:35 Clear 60 15.5 43 6.1 54 54 SSE 16 26 29.71 1006 10 16.0934 0 0
9:55 pm 21:55 Clear 59 15.1 43 6.2 56 56 SSE 16 26 29.71 1006 10 16.0934 0 0
10:15 pm 22:15 Clear 59 14.8 43 6.3 57 57 SSE 17 28 29.68 1005 10 16.0934 0 0
10:35 pm 22:35 Clear 58 14.5 44 6.5 59 59 S 18 30 29.68 1005 10 16.0934 0 0
10:55 pm 22:55 Clear 58 14.6 44 6.6 59 59 S 18 30 29.68 1005 10 16.0934 0 0
11:15 pm 23:15 Clear 58 14.5 44 6.6 59 59 SSE 20 31 29.68 1005 10 16.0934 0 0
11:35 pm 23:35 Clear 57 14.1 44 6.7 61 61 SSE 13 20 29.68 1005 10 16.0934 0 0
11:55 pm 23:55 Clear 56 13.5 44 6.7 64 64 S 13 20 29.65 1004 10 16.0934 0 0

Powered by AerisWeather